Weather History for KORE - August, 2014

Change the Weather History Date:

Wednesday, August 20, 2014

  Actual Average Record
Temperature  
Mean Temperature 66 °F -  
Max Temperature 82 °F 78 °F 87 °F (2003)
Min Temperature 50 °F 54 °F 43 °F (1998)
Growing Degree Days 16 (Base 50)    
Moisture  
Dew Point 55 °F    
Average Humidity 69    
Maximum Humidity 97    
Minimum Humidity 41    
Precipitation  
Precipitation 0.00 in - - ()
Sea Level Pressure  
Sea Level Pressure 30.01 in    
Wind  
Wind Speed 2 mph (SE)    
Max Wind Speed 9 mph    
Max Gust Speed -    
Visibility 10 miles    
Events      
Averages and records for this station are not official NWS values.
T = Trace of Precipitation, MM = Missing Value Source: NWS Daily Summary

Daily Weather History Graph

Daily Weather History Graph

Search for Another Location

Airport or City:

Trip Planner

Search our weather history database for the weather conditions in past years. The results will help you decide how hot, cold, wet, or windy it might be!

Date:

Astronomy

Aug. 20, 2014 Rise Set
Actual Time 6:01 AM EDT 7:43 PM EDT
Civil Twilight 5:31 AM EDT 8:12 PM EDT
Nautical Twilight 4:54 AM EDT 8:49 PM EDT
Astronomical Twilight 4:15 AM EDT 9:27 PM EDT
Moon 1:36 AM EDT (8/20) 4:28 PM EDT (8/20)
Length of Visible Light 14h 41m
Length of Day
13h 41m
Waning Crescent, 21% of the Moon is Illuminated
Aug 20
Waning Crescent
Aug 25
New
Sep 2
First Quarter
Sep 8
Full
Sep 15
Last Quarter

Hourly Weather History & Observations

Time (EDT) Temp. Heat Index Dew Point Humidity Pressure Visibility Wind Dir Wind Speed Gust Speed Precip Events Conditions
12:52 AM 55.0 °F - 54.0 °F 96% 29.99 in 10.0 mi Calm Calm - N/A   Clear
1:52 AM 54.0 °F - 53.1 °F 97% 29.99 in 10.0 mi Calm Calm - N/A   Clear
2:52 AM 53.1 °F - 51.1 °F 93% 29.99 in 9.0 mi Calm Calm - N/A   Clear
3:52 AM 51.1 °F - 50.0 °F 96% 29.98 in 10.0 mi Calm Calm - N/A   Clear
4:52 AM 50.0 °F - 48.9 °F 96% 29.99 in 10.0 mi Calm Calm - N/A   Clear
5:52 AM 50.0 °F - 48.9 °F 96% 30.00 in 10.0 mi Calm Calm - N/A   Clear
6:52 AM 52.0 °F - 51.1 °F 97% 30.01 in 10.0 mi Calm Calm - N/A   Clear
7:52 AM 57.0 °F - 53.1 °F 87% 30.02 in 10.0 mi Calm Calm - N/A   Clear
8:52 AM 62.1 °F - 55.0 °F 78% 30.02 in 10.0 mi Calm Calm - N/A   Mostly Cloudy
9:52 AM 69.1 °F - 57.0 °F 65% 30.03 in 10.0 mi Calm Calm - N/A   Partly Cloudy
10:52 AM 73.9 °F - 57.0 °F 55% 30.02 in 10.0 mi Variable 3.5 mph - N/A   Clear
11:52 AM 77.0 °F - 54.0 °F 45% 30.02 in 10.0 mi ESE 5.8 mph - N/A   Clear
12:52 PM 78.1 °F - 54.0 °F 43% 30.01 in 10.0 mi SE 5.8 mph - N/A   Clear
1:52 PM 81.0 °F 80.7 °F 55.0 °F 41% 30.01 in 10.0 mi Variable 6.9 mph - N/A   Clear
2:52 PM 81.0 °F 80.8 °F 55.9 °F 42% 29.99 in 10.0 mi South 8.1 mph - N/A   Clear
3:52 PM 81.0 °F 81.0 °F 57.0 °F 44% 29.98 in 10.0 mi Variable 4.6 mph - N/A   Clear
4:52 PM 81.0 °F 81.1 °F 57.9 °F 45% 29.99 in 10.0 mi Variable 4.6 mph - N/A   Clear
5:52 PM 81.0 °F 81.3 °F 59.0 °F 47% 30.00 in 10.0 mi ESE 9.2 mph - N/A   Mostly Cloudy
6:52 PM 77.0 °F - 60.1 °F 56% 30.02 in 10.0 mi SE 3.5 mph - N/A   Mostly Cloudy
7:52 PM 73.0 °F - 60.1 °F 64% 30.03 in 10.0 mi SE 4.6 mph - N/A   Mostly Cloudy
8:52 PM 70.0 °F - 59.0 °F 68% 30.04 in 10.0 mi South 4.6 mph - N/A   Scattered Clouds
9:52 PM 66.9 °F - 57.9 °F 73% 30.05 in 10.0 mi SSE 5.8 mph - N/A   Scattered Clouds
10:52 PM 66.9 °F - 55.9 °F 68% 30.06 in 10.0 mi SSE 4.6 mph - N/A   Overcast
11:52 PM 66.0 °F - 55.0 °F 68% 30.06 in 10.0 mi East 3.5 mph - N/A   Overcast